SCOUT X-4 DEB, 2088

Orbit data source: Space-Track

SCOUT X-4 DEB, 2088 is space debris in LEO originally from a launch on Fri, 19 Nov 1965 UTC launched from the Wallops Island (WLPIS). Debris objects in space refer to the collection of defunct objects orbiting the Earth. Examples of debris include non-operational satellites, rocket bodies, and fragments generated from explosions, collisions, or faulty payload assembly.

Loading next visibility...
Identifier
2088, 1965-093D
Orbit
LEO
Last TLE update
1 day ago
Origin
Manufacturer
Unknown
Mission
Spacecraft
Bus & Motor
Unknown
Mass
Unknown
Launch date (UTC)
1965-11-19 (59 years ago)
Launch vehicle
Unknown
Launch site
Wallops Island (WLPIS)
Object type
Payload
Rocket body
Debris
Shape & HBR
Unknown
Radar Cross Section
Small (<0.1 m²)

Expand to show TLE details & history

TLE from 1 day ago
0 SCOUT X-4 DEB
1 02088U 65093D   25128.31355854  .00001529  00000-0  32997-3 0  9993
2 02088  59.7138 171.6673 0085688  44.8937 315.8998 14.60805238 94715
Epoch: 2025-05-08T07:31Z
Definitive object data (Epoch: 2025-05-08T07:31:31.457Z)
Latitude
-0.00007°
Longitude
-167.59965°
Altitude
648.856 km
Speed
7.557 km/s
True Right ascension
11h 26m 40s
True Declination
0° 00' 00"
Sunlit
Object was in full shadow at TLE epoch
Visualization TLE readout
Latitude
-43.25567°
Longitude
154.50492°
Altitude
714.079 km
Speed
7.494 km/s
Apparent Right ascension
10h 34m 00s
Apparent Declination
-44° 24' 44"
Sunlit
Object is in daylight
Visualization observer readout
Local Sidereal Time
00:18:51
Azimuth
111.695° ESE
Elevation
-70.148°
Doppler factor
1
Orbital elements
Apogee altitude
750.405 km
Perigee altitude
629.277 km
Semi-major axis
7,067.978 km
Eccentricity
0.0085688
Inclination
59.7138°
RAAN
171.6673°
Arg. of periapsis
44.8937°
True anomaly
315.21119°
Mean anomaly
315.8998°
Eccentric anomaly
315.55603°
Mean motion
3.65259 °/min
BSTAR
0.00032997
Orbital period
98.56 mins
Loading maneuver chart data...
Loading SW <> Apogee altitude chart data...
Loading historical data...
Loading historical data...
Loading historical data...
Loading historical data...
Loading historical data...
Loading historical data...
Loading historical data...
Other satellites on launch #93 in the year 1965 (1965-11-19 UTC)

SCOUT X-4 DEB Visibility forecast

Observer location: undefined°, undefined°

Span
Click to sort rows by Start time (UTC) header in descending order
Start Az.
Max El. time (UTC)
Max El. Az.
Max El.
End time (UTC)
End Az.
8 mins2025-05-10 04:00:26.180Z188.232° SSW2025-05-10 04:04:26.180Z116.985° SE31.594°2025-05-10 04:08:26.180Z54.752° ENE
6 mins2025-05-10 05:43:26.180Z267.788° W2025-05-10 05:46:26.180Z322.696° NNW25.749°2025-05-10 05:49:26.180Z14.095° NNE
4 mins2025-05-10 10:56:26.180Z5.325° NNE2025-05-10 10:58:26.180Z34.807° NE16.065°2025-05-10 11:00:26.180Z62.696° ENE
8 mins2025-05-10 12:37:26.180Z322.77° NNW2025-05-10 12:40:26.180Z340.673° N43.609°2025-05-10 12:45:26.180Z139.168° SSE
|